OneWeb SL0137

operational
NORAD ID: 47274 Int'l Des: 2020-100 Owner: ONEWEB Country: UK Constellation: oneweb
LEOCIRCULARPOLARONEWEB_TYPE

Über OneWeb SL0137

Beschreibung wird geladen...

Live-Position

3D-Globus wird geladen...

Nächste Überflüge

Höhenverlauf

Altitude vs Time

uPlot chart will show altitude changes over time

Zweizeiliger Elementsatz

1 47274U 20100S 25304.77690242 .00000290 00000-0 77038-3 0 9997
2 47274 87.8971 36.0772 0001981 105.9825 254.1522 13.12442952234788
Epoch: 31. Okt. 2025 • Age: 26 hours

Aktueller Status

Höhe 1217.4 km
Geschwindigkeit 7.25 km/s
Subsatellitenpunkt -2.84°S, 50.69°E
Startdatum 18. Dez. 2020
Alter 4.8 years
Typ internet

Technische Details

Klassifizierung Payload
Masse 148.00 kg
Trockenmasse 140.00 kg
Gesamtmasse 148.00 kg
Länge 1.30 m
Durchmesser 1.00 m
Spannweite 5.00 m
Form Trapezoid+2 pan
Hersteller ONEWUS
Bus-Typ ARROW
Phasenstatus In Orbit
Besitzer/Staat ONEWEB/UK

Große Konstellationen

Loading constellations...